Theta_e
343 342 342 342 342 343 343 343 344 342 343 342 343 343 342 341 339 338 339 340 340 340 340 340 341 341 341 341 339 339 341 342 343 343 343 344 344 344 344 344 344 343 343 343 343 343 342 341 341 340 339 339 338 338 338 337 338 337 337 337 337 338 337 336 337 337 337 336 335 336 337 338 339 338 337 337 338 338 338 338 338 337 337 337 336
339 339 341 341 341 342 343 344 344 343 343 341 342 342 342 341 339 339 340 341 341 341 341 341 340 339 337 337 337 336 339 341 342 343 343 343 344 344 344 344 344 344 343 343 343 343 343 342 341 340 340 339 338 338 338 338 337 337 337 337 336 336 337 336 336 336 335 334 334 334 334 334 335 337 337 337 337 337 337 338 338 338 338 337 337
338 338 339 340 340 342 343 343 343 343 343 342 342 342 342 342 340 339 341 341 341 340 340 340 339 338 336 336 336 335 338 341 342 342 343 344 345 344 343 344 343 343 343 343 344 344 344 343 341 340 341 340 339 338 338 338 338 338 337 338 337 336 337 336 337 337 335 334 334 334 334 333 332 335 338 338 338 337 337 338 338 338 338 338 338
340 338 338 340 341 342 342 343 343 343 343 342 342 342 342 341 340 340 341 340 339 339 339 339 339 339 338 337 338 336 337 341 343 343 343 343 343 343 343 342 342 342 343 343 343 344 344 343 342 342 342 341 339 339 338 339 340 340 339 339 339 338 337 335 336 336 335 335 334 333 334 334 333 334 336 336 337 337 338 338 338 338 339 339 338
340 338 339 341 342 342 342 343 343 342 342 343 342 342 341 341 340 340 339 337 337 338 339 339 339 339 338 338 338 337 336 340 342 341 341 340 340 342 342 341 341 342 343 342 342 343 343 343 342 342 341 340 339 338 338 338 339 340 340 340 340 339 339 336 335 335 336 337 336 335 334 333 333 334 335 334 334 336 338 338 337 338 338 338 338
340 340 339 341 342 342 342 343 343 342 342 343 342 341 342 341 341 339 336 336 338 338 339 339 338 339 339 337 337 336 336 338 339 338 339 339 340 341 341 341 341 341 342 342 341 341 341 341 340 339 339 338 338 338 337 338 338 338 339 339 338 338 339 338 336 335 335 337 337 337 336 336 336 336 336 334 333 334 336 337 337 338 338 337 337
341 342 341 341 342 342 343 343 342 342 342 343 342 342 342 341 340 339 337 337 339 339 339 339 337 337 338 336 336 336 336 337 338 339 340 341 340 340 340 340 340 340 340 339 339 338 338 337 337 337 337 336 336 336 337 337 337 336 336 337 337 337 337 337 336 335 334 335 337 338 339 338 338 338 337 335 335 335 334 335 336 337 338 336 336
339 342 342 341 342 343 343 343 342 342 342 343 342 341 341 340 339 338 338 338 339 337 336 337 336 336 336 336 335 335 334 336 339 341 340 340 339 339 339 338 338 338 337 337 336 336 335 335 335 335 335 334 334 334 335 335 335 336 336 336 336 336 336 336 336 336 335 335 335 336 337 336 337 338 338 337 336 336 334 335 335 335 337 338 337
340 342 341 341 342 343 343 342 342 342 342 342 341 341 340 340 338 338 337 338 339 337 335 334 334 335 335 334 334 335 336 337 338 339 338 338 338 337 337 336 336 336 335 335 334 333 333 333 333 333 333 332 332 332 333 333 334 335 335 335 336 336 335 335 335 335 335 335 335 335 335 335 335 336 336 336 337 336 334 334 335 333 335 338 336
341 341 341 341 342 342 342 342 342 342 341 340 341 340 340 338 336 337 337 337 338 338 336 333 332 334 334 334 334 336 338 338 337 337 337 337 336 336 336 335 335 334 333 333 332 331 331 331 331 331 331 331 331 331 332 333 334 334 334 334 334 334 334 334 334 334 334 334 334 335 335 334 334 334 334 335 336 336 334 334 335 334 333 334 334
339 340 341 341 341 341 341 342 341 341 340 340 340 340 339 337 336 337 337 337 337 337 336 334 334 335 335 335 336 336 337 336 336 336 336 336 335 335 334 333 333 332 331 331 330 328 328 329 329 329 329 330 330 331 331 332 332 332 332 332 333 333 333 333 333 333 333 333 334 334 334 334 333 333 333 333 333 334 334 333 333 333 332 332 331
339 340 341 341 341 341 341 341 341 341 341 341 340 339 338 337 337 337 336 336 336 335 335 335 334 334 336 337 337 336 336 336 336 335 334 334 334 333 332 332 331 330 329 328 327 326 326 326 326 326 327 328 328 329 329 330 330 330 331 331 331 332 332 332 332 332 333 333 333 333 333 333 333 333 332 332 332 333 333 332 332 332 331 332 331
340 341 341 341 341 341 341 341 341 342 341 340 340 339 338 337 337 336 335 334 335 334 333 333 334 334 335 336 335 335 335 334 334 333 332 331 331 330 330 330 329 328 327 326 325 324 324 324 324 324 325 325 325 326 327 328 328 329 329 330 330 331 331 331 331 332 332 333 333 333 333 333 332 332 332 332 332 332 332 332 331 331 331 331 331
341 341 341 340 341 341 341 341 341 341 340 339 340 339 338 337 336 335 334 333 333 333 333 333 334 334 333 333 333 333 332 332 331 330 330 329 328 328 327 327 327 326 325 324 323 323 322 322 322 323 323 323 324 324 325 326 327 328 328 328 329 330 330 331 331 331 332 332 332 332 332 332 332 332 331 331 331 332 331 331 331 331 332 332 332
341 341 341 340 341 341 341 340 340 341 339 337 337 337 337 336 335 334 333 333 333 333 333 332 332 331 331 331 331 330 329 329 328 327 327 327 326 326 325 325 325 324 323 323 321 321 321 321 321 321 321 321 322 323 323 325 325 326 327 327 328 328 329 329 330 330 330 331 331 331 332 331 331 331 331 331 331 330 330 331 331 331 331 332 331
342 341 340 340 341 340 340 339 340 340 338 335 334 334 334 333 333 333 334 333 332 332 331 331 330 329 328 328 327 327 327 326 325 325 325 325 324 324 324 323 322 322 321 320 320 320 319 319 319 320 320 320 320 320 321 322 323 323 325 326 326 327 327 327 327 328 328 329 329 330 330 330 331 331 330 330 330 330 330 330 330 331 331 332 331
340 340 340 339 340 339 339 340 339 339 337 335 333 332 333 333 333 333 332 332 331 330 329 328 328 327 326 325 325 325 325 324 324 323 323 323 323 322 322 321 320 319 319 318 318 318 318 318 318 318 318 318 319 319 319 320 320 321 322 323 324 324 324 324 324 325 325 326 327 327 328 328 329 330 330 330 330 330 330 330 330 330 330 331 331
337 338 338 337 339 339 339 339 338 337 336 335 334 333 334 333 332 332 331 330 330 329 328 327 326 325 325 324 323 323 323 322 322 322 322 322 321 320 320 319 318 317 317 317 317 317 317 317 318 318 318 318 318 318 318 319 319 320 320 321 322 321 321 321 322 322 323 324 324 325 326 326 327 328 329 330 330 330 330 330 330 331 330 331 331
335 335 334 335 338 339 338 338 336 336 336 335 335 334 333 332 332 331 330 329 328 327 326 325 324 324 323 323 322 322 321 321 321 321 320 320 319 319 318 318 317 317 317 317 316 316 317 317 317 317 317 317 317 317 318 318 318 319 319 319 320 319 319 320 320 320 321 321 321 322 324 325 326 326 327 328 328 329 329 330 331 331 332 332 331
335 334 333 335 337 337 337 336 336 335 335 335 334 333 332 331 330 329 328 327 326 325 325 324 323 323 322 322 321 321 321 320 320 320 319 318 318 318 317 317 316 316 316 316 316 316 316 317 317 317 317 316 317 317 317 317 318 318 318 319 319 318 318 319 319 319 319 319 319 320 321 323 324 325 325 325 326 327 327 328 329 331 331 331 330
336 335 334 335 336 336 335 335 335 334 334 334 333 332 330 329 328 327 326 326 325 324 323 323 322 321 321 321 320 320 320 319 319 319 318 317 317 317 316 316 315 315 315 315 315 315 316 316 316 316 315 315 316 316 316 316 317 317 317 317 318 317 318 318 317 318 318 318 318 319 319 321 322 323 324 325 325 326 326 327 328 330 330 329 329
336 336 335 335 335 335 334 334 334 333 333 332 330 329 329 327 327 326 325 325 324 323 322 322 321 321 320 320 319 319 318 317 317 317 316 315 315 315 315 315 315 314 314 314 314 314 314 315 314 314 315 315 315 315 315 316 316 316 316 317 317 317 317 317 316 316 317 317 317 318 319 319 320 321 322 323 323 324 326 327 327 328 329 328 328
337 336 334 335 335 334 333 332 332 332 331 329 328 328 327 326 325 325 324 323 323 322 321 321 320 320 319 319 318 317 316 316 316 315 315 314 314 314 314 314 314 313 313 313 313 313 313 313 313 314 314 314 314 315 315 315 315 315 315 316 316 316 316 316 316 315 316 316 316 317 317 317 318 318 319 320 321 322 323 324 325 327 327 328 328
336 334 332 332 332 333 332 331 329 329 328 327 326 326 325 325 324 323 323 322 322 321 320 320 319 319 318 317 316 316 315 315 314 314 314 313 313 313 313 313 313 313 313 313 312 312 313 313 313 313 313 313 313 313 313 313 313 314 315 315 315 316 316 316 315 315 314 315 315 315 315 315 316 316 317 317 317 318 318 320 322 324 325 327 327
334 331 330 330 331 332 331 329 327 326 326 326 325 325 324 323 322 322 322 321 321 320 319 319 318 318 317 316 316 315 314 314 313 313 313 312 312 312 312 312 312 312 312 312 312 312 313 313 313 313 312 312 312 311 310 310 310 312 313 314 315 315 315 315 315 313 313 313 313 314 314 314 314 313 313 312 312 313 315 317 319 321 322 324 325
332 330 330 331 331 330 328 327 326 325 325 324 324 323 322 322 321 321 320 319 319 319 319 318 317 316 316 315 315 314 313 313 312 312 312 312 312 312 312 312 312 312 312 312 312 312 312 313 313 312 311 310 309 308 307 307 307 309 312 314 314 314 314 314 314 313 313 313 313 313 313 313 312 311 310 309 309 310 312 314 316 318 319 321 322
330 330 331 331 329 327 326 325 325 324 323 323 323 322 321 321 320 319 318 318 317 317 317 317 316 316 315 314 314 313 312 312 312 311 311 311 311 311 311 311 311 312 312 312 312 312 312 312 312 311 309 308 307 306 305 305 306 308 310 313 314 313 313 313 313 313 313 313 313 313 313 312 311 310 309 308 307 308 310 312 314 316 317 317 319
330 330 330 329 326 324 324 324 324 323 323 322 321 321 320 319 318 318 318 317 316 316 316 315 315 315 314 313 312 312 312 311 311 311 311 311 311 311 311 311 311 311 311 312 312 312 312 312 311 310 309 307 306 304 304 304 305 307 309 311 312 312 311 311 312 312 312 312 313 312 312 311 310 308 307 306 307 308 309 310 313 315 315 315 316
329 329 328 326 324 323 323 323 323 322 321 321 320 319 319 318 317 317 317 317 317 316 315 315 314 313 313 312 311 311 311 311 311 311 310 311 311 311 311 311 311 311 311 311 311 311 311 311 310 309 308 307 305 303 303 304 305 307 309 310 311 311 310 310 310 311 311 311 311 311 311 310 309 307 306 306 306 309 309 310 312 314 314 314 313
327 327 326 323 322 322 323 323 322 321 320 320 319 318 318 317 317 316 316 316 315 315 315 314 313 313 312 311 311 311 310 310 311 311 311 310 311 310 310 311 310 310 310 310 310 310 310 310 309 308 307 306 304 303 304 305 306 307 308 310 310 310 310 310 309 310 310 309 310 310 310 309 308 307 306 305 306 309 310 310 312 313 313 312 312
326 325 324 323 323 324 323 321 321 320 319 319 318 318 317 316 316 315 315 315 314 314 314 313 312 312 312 311 311 311 310 310 310 310 311 310 310 310 310 310 310 310 310 309 309 310 309 309 308 307 306 305 304 303 304 306 306 307 308 309 310 309 309 308 308 308 308 307 308 308 308 308 308 306 305 304 305 307 309 310 311 312 312 311 310
324 322 322 322 323 322 321 320 320 319 318 318 317 316 316 315 315 314 314 314 313 313 313 313 312 312 311 311 310 310 310 310 310 310 310 310 310 310 310 310 309 309 309 309 309 309 309 309 308 307 305 304 303 304 304 305 306 307 308 309 309 308 308 307 307 307 306 306 306 306 306 306 306 305 303 302 303 305 308 309 310 311 312 311 309
322 321 321 321 321 320 319 319 318 318 317 316 316 315 314 314 314 313 313 313 313 313 312 312 312 312 311 310 310 310 310 310 310 310 310 309 309 309 309 309 309 309 308 308 308 308 308 308 307 306 305 303 302 304 304 305 306 306 307 308 308 308 307 307 306 305 305 304 304 304 304 304 304 303 301 300 301 304 307 309 310 311 311 310 309
320 320 320 320 320 320 319 318 318 318 317 316 315 315 314 313 313 313 313 313 313 312 312 312 311 311 311 310 310 310 310 310 310 309 309 309 309 309 309 309 308 308 308 307 307 307 307 307 306 306 305 303 302 303 304 304 305 306 307 307 307 307 306 306 305 305 304 303 302 302 303 302 302 302 300 299 300 302 306 309 309 310 310 310 309
319 320 320 320 320 319 319 318 318 317 316 316 315 314 313 313 313 313 312 312 312 312 312 311 311 311 310 310 310 310 309 309 309 309 308 308 308 308 308 308 308 307 307 307 306 306 306 306 306 305 304 302 300 302 303 304 305 306 307 307 307 306 306 305 304 304 304 303 301 301 301 301 301 300 299 299 300 302 305 307 308 308 309 309 309
320 320 320 320 319 319 318 318 317 316 316 315 314 314 313 313 313 312 312 311 311 311 311 311 311 310 310 310 309 309 309 309 308 308 308 308 308 308 307 307 307 306 306 306 306 305 305 305 305 304 303 301 299 300 302 303 305 306 307 307 306 306 305 305 304 303 303 302 301 300 300 300 300 299 299 299 300 302 305 305 305 306 307 307 307
321 320 320 320 319 319 318 317 317 316 315 314 314 313 313 313 312 312 311 311 311 311 310 310 310 310 309 309 309 308 308 308 308 308 308 307 307 307 306 306 306 306 306 306 305 305 304 304 304 304 302 301 299 299 300 302 303 305 306 306 306 305 304 304 303 303 302 302 300 299 299 299 299 299 299 299 300 302 304 303 303 304 305 305 305
321 321 320 320 319 319 318 317 316 316 315 314 314 313 313 313 312 311 310 310 310 310 309 309 309 309 309 308 308 308 307 307 307 307 307 307 307 306 306 306 306 306 306 305 304 303 303 302 303 303 302 301 299 298 299 301 302 303 304 305 305 304 303 303 303 302 302 302 301 299 298 298 298 298 298 299 299 301 302 302 302 303 303 303 304
321 321 320 319 318 318 317 317 316 315 314 314 313 313 313 311 310 310 310 310 310 309 309 308 308 308 308 307 307 307 307 306 306 306 306 306 306 306 306 306 305 305 305 305 304 304 302 302 301 301 301 301 299 297 297 299 301 302 303 304 304 303 303 302 302 302 301 301 301 300 298 298 298 298 298 299 299 299 301 301 301 301 302 302 303
321 320 319 318 318 317 316 316 315 314 314 313 313 312 311 309 309 308 308 308 308 307 307 307 307 306 306 306 306 306 306 306 306 306 305 305 306 306 306 305 305 304 304 304 304 304 304 303 301 300 299 300 300 298 296 297 298 300 301 303 303 302 302 302 302 301 301 301 300 300 299 298 298 298 298 298 299 299 300 300 300 300 300 301 302
319 319 318 318 317 316 316 315 314 313 313 312 311 309 308 307 307 307 307 306 306 305 305 305 305 305 305 305 305 305 305 305 305 305 305 305 305 305 305 305 305 305 305 304 304 304 304 303 303 302 300 298 298 298 297 296 296 297 299 300 301 301 301 302 301 300 300 300 300 299 298 298 298 298 298 298 299 299 300 300 300 300 300 300 301
318 317 317 317 316 315 314 314 313 312 312 310 309 307 306 306 305 306 306 305 305 305 305 304 304 304 304 304 305 305 305 305 305 305 305 305 305 305 305 305 305 305 304 304 304 303 303 303 303 302 301 300 298 297 297 296 296 296 296 297 299 299 300 301 300 300 299 299 299 298 298 297 298 298 298 298 298 299 300 300 299 300 300 300 301
316 316 316 316 316 315 314 313 312 311 310 309 307 307 306 305 305 305 305 305 306 306 305 305 305 305 305 304 304 305 305 305 305 305 305 305 304 304 304 304 304 304 304 304 303 303 303 303 302 302 302 301 300 299 298 297 296 296 296 296 297 297 298 299 299 299 298 298 298 298 298 297 297 298 298 298 298 298 299 299 299 300 300 300 301
316 316 315 315 315 315 314 313 312 310 309 308 307 307 306 306 306 305 305 306 306 306 306 305 305 305 305 305 305 305 305 304 304 305 305 305 304 304 304 304 304 304 303 303 303 303 303 302 302 301 301 301 301 300 300 299 298 298 297 297 297 297 297 298 299 298 298 298 297 297 297 297 297 298 298 298 298 298 298 299 299 300 300 300 300
316 315 315 315 315 314 313 312 310 309 308 307 307 306 306 306 306 305 306 306 306 306 305 305 305 305 305 305 305 304 304 304 304 304 304 304 304 303 303 303 303 303 303 303 303 303 303 302 302 301 300 299 299 300 300 299 299 299 298 298 297 297 297 298 299 299 299 298 298 297 297 298 298 298 298 299 298 298 298 299 299 299 300 300 300
315 315 315 314 313 312 311 310 309 307 307 306 306 306 306 305 305 305 305 305 305 305 305 305 305 305 304 304 304 304 304 304 304 303 303 303 303 303 303 302 302 302 302 303 303 303 303 302 302 300 300 299 298 298 298 298 298 299 299 298 298 298 298 298 299 299 299 299 298 297 298 298 298 298 298 298 298 298 298 298 299 299 299 299 299
314 314 314 313 312 310 309 308 307 307 306 305 305 305 305 304 304 304 304 305 305 305 305 304 304 304 303 303 303 303 303 303 302 302 303 302 303 303 303 303 303 302 302 302 302 302 302 302 302 300 299 298 297 297 296 296 296 297 297 297 297 298 298 298 298 299 299 299 299 298 298 298 298 298 298 298 298 298 298 298 298 298 299 299 299
313 313 312 312 311 309 308 307 307 306 305 305 304 304 304 304 304 304 304 305 304 304 304 303 303 303 303 303 302 302 303 303 302 302 301 300 301 301 301 301 301 301 302 302 302 301 301 300 301 301 299 298 297 296 295 295 294 294 295 295 296 297 297 298 298 297 298 299 299 298 298 298 298 298 298 298 298 298 298 298 298 298 298 298 299
312 312 311 311 310 308 307 307 306 305 304 304 304 303 304 304 304 304 304 304 304 304 304 303 303 303 302 302 302 302 302 302 302 300 299 298 299 299 299 298 297 297 299 301 302 301 299 298 298 299 299 298 297 295 294 293 293 293 293 294 295 295 296 297 296 297 297 298 299 298 298 298 298 298 298 298 298 298 298 298 298 298 298 298 298
312 311 310 310 309 307 307 306 305 304 304 303 303 303 303 303 303 303 304 304 304 304 303 303 302 302 302 302 302 301 300 300 300 299 297 296 295 295 295 294 294 294 296 298 299 299 299 297 296 295 294 294 294 294 293 293 293 293 293 293 294 295 295 296 296 296 297 298 298 298 298 298 298 298 298 298 298 297 297 297 297 297 297 297 297
312 311 310 309 307 307 306 305 304 304 303 303 303 303 303 303 303 303 303 303 303 303 303 303 302 302 302 302 301 300 298 298 297 297 296 295 294 293 292 292 291 291 292 294 295 296 297 297 297 295 294 293 292 292 292 292 293 293 293 293 295 295 295 296 296 297 297 298 298 298 298 298 298 298 298 298 298 297 297 297 297 297 297 297 297
Wind_Speed
12 17 17 17 18 19 19 19 19 20 19 19 20 20 20 19 19 19 19 18 18 17 16 16 15 15 14 13 14 14 12 10 9 8 8 8 7 7 6 6 5 5 4 3 2 2 2 3 3 3 3 4 5 5 6 6 6 6 7 7 8 8 9 8 7 9 11 12 12 13 14 15 15 16 15 15 15 15 14 14 14 14 15 16 16
12 13 14 15 16 18 19 19 21 21 20 21 22 22 21 20 19 18 18 18 17 15 13 12 10 8 9 10 11 12 10 9 9 8 7 7 7 6 5 5 4 4 3 3 2 2 2 3 3 4 4 5 6 6 6 7 7 7 7 8 8 8 9 8 7 8 10 10 10 10 11 12 13 15 15 14 14 14 14 14 14 14 14 15 14
12 12 12 15 17 17 18 18 20 20 21 22 22 22 21 20 19 18 17 15 13 10 8 7 5 4 5 6 6 7 8 9 8 8 7 7 6 6 5 4 4 3 3 3 2 2 3 4 4 4 5 5 6 7 7 7 7 7 8 8 9 9 9 8 7 8 10 11 10 8 7 8 8 8 11 13 14 14 14 14 14 14 14 14 14
10 10 10 15 19 18 18 18 19 19 20 21 21 21 20 19 18 16 14 11 8 9 9 8 7 7 7 6 6 5 6 8 8 7 6 6 6 6 5 4 4 3 3 3 2 2 3 4 4 5 5 6 7 7 7 7 7 7 7 8 9 10 10 9 8 9 10 10 8 7 7 7 6 3 6 11 13 14 14 14 14 14 14 14 14
10 10 9 14 18 18 19 19 20 20 20 20 21 20 18 17 16 14 10 6 6 9 11 10 9 8 8 9 9 6 4 5 6 6 6 6 6 6 5 4 4 4 3 3 2 2 2 3 4 5 6 7 7 8 8 7 7 7 7 8 9 10 11 12 10 9 10 10 9 8 7 6 5 7 8 9 10 11 14 16 16 15 14 14 15
11 12 12 13 16 17 18 19 20 20 19 19 19 18 17 16 14 12 10 8 9 11 9 8 8 8 9 10 10 8 6 5 6 6 7 7 6 6 5 4 4 4 3 2 2 1 2 4 5 6 7 7 8 9 9 8 8 8 8 8 9 9 11 13 13 11 10 10 11 10 9 9 9 10 9 8 9 11 11 14 16 15 14 16 16
8 10 13 14 15 16 16 18 19 18 19 19 18 17 15 15 14 14 14 13 13 11 7 7 7 6 8 8 8 8 7 6 6 6 5 6 6 6 5 4 4 3 3 1 0 2 3 5 6 7 7 7 8 9 9 9 9 9 8 9 10 10 10 13 14 13 12 10 10 10 12 13 13 12 9 7 9 10 10 12 13 13 14 17 18
10 11 14 15 16 17 16 17 18 18 19 17 16 17 15 15 17 17 15 12 12 10 7 7 8 7 8 6 6 8 8 7 7 6 5 5 6 5 4 4 4 3 3 2 2 4 5 6 6 7 7 7 8 8 9 9 10 10 10 10 10 10 11 12 14 14 13 12 11 11 12 14 14 13 13 11 9 8 10 12 12 14 15 17 20
15 14 15 15 16 18 18 17 16 17 18 16 17 17 15 15 17 16 14 11 11 12 9 8 10 10 9 7 7 9 9 8 7 6 6 5 5 5 3 3 2 3 4 4 4 5 5 6 6 6 6 7 8 8 8 9 10 10 10 10 11 11 11 12 13 14 14 13 13 13 13 14 14 14 15 14 11 9 9 9 11 13 13 16 20
13 15 15 16 17 17 17 16 16 16 17 17 18 17 15 14 14 14 12 11 12 12 10 10 11 8 6 6 7 8 7 7 6 6 5 5 4 3 2 2 3 3 3 4 4 5 6 6 6 6 6 7 7 8 9 9 9 10 10 11 11 12 12 12 13 14 14 15 14 14 14 14 14 13 13 13 12 10 10 10 12 14 11 13 17
11 14 15 17 19 18 18 17 17 17 18 19 19 18 17 15 14 13 11 11 13 12 10 7 6 6 6 7 7 7 6 6 6 6 5 4 3 2 2 2 3 3 3 3 4 5 6 5 5 6 6 7 7 8 9 9 9 10 11 11 11 11 12 13 14 14 14 15 15 15 15 14 14 13 14 15 13 11 10 10 13 16 16 16 17
13 14 14 16 16 18 19 18 18 19 20 22 20 18 18 17 16 15 13 14 14 12 9 6 5 7 7 6 7 7 6 6 6 5 4 3 2 1 1 1 1 2 3 3 4 5 6 5 6 7 6 7 7 8 9 9 10 11 11 11 11 12 12 13 14 14 14 15 16 16 16 16 16 16 17 17 16 16 14 9 12 17 16 16 18
13 13 14 14 13 15 19 19 19 20 21 23 21 19 18 18 18 16 15 16 15 13 10 8 7 8 7 7 6 6 6 5 5 4 3 2 2 1 1 0 1 2 2 3 4 6 6 6 6 7 7 7 8 8 9 10 10 11 11 11 12 12 13 13 14 15 15 16 16 17 17 17 18 18 18 18 18 19 17 12 14 18 14 14 18
14 14 14 14 13 15 19 20 19 19 20 21 21 20 19 18 18 18 17 16 15 13 11 10 9 7 7 6 5 5 5 4 5 5 3 3 2 2 2 2 1 2 2 3 5 6 6 6 7 7 7 7 8 8 9 9 10 10 11 11 12 12 13 13 14 15 16 16 17 18 18 19 19 19 18 19 19 19 19 16 14 15 15 15 17
14 14 14 14 15 17 18 19 19 20 20 18 16 17 19 18 18 19 18 16 15 14 12 11 10 8 7 6 6 5 5 5 6 5 4 4 3 3 3 2 2 2 3 3 5 6 6 7 7 7 7 8 8 9 9 9 10 11 11 11 11 12 13 13 14 15 16 17 17 18 19 19 20 20 19 19 19 19 20 19 15 12 12 12 12
13 14 14 15 18 19 18 19 20 20 20 20 16 15 17 19 19 19 18 17 16 14 12 10 9 8 7 6 6 7 7 6 6 5 5 4 4 3 3 3 3 3 3 4 5 6 6 7 7 7 7 8 8 8 8 9 10 10 10 11 12 12 13 14 14 15 15 16 16 17 18 19 20 20 20 19 20 20 20 20 19 15 11 9 8
10 11 14 15 18 20 20 21 21 19 19 22 23 21 20 21 21 20 18 17 15 14 12 10 9 9 8 8 8 8 8 7 6 6 5 5 4 4 4 4 4 4 4 4 5 6 6 6 6 7 8 8 8 8 8 9 9 9 10 11 11 12 13 14 14 15 15 16 16 16 17 19 20 20 21 20 20 22 21 20 20 19 15 11 8
8 11 13 14 17 22 22 21 20 19 17 19 23 24 22 22 21 20 18 16 14 13 12 10 9 9 9 9 9 8 8 7 7 6 5 5 5 5 5 5 5 5 5 5 5 6 6 6 6 7 8 8 8 9 9 9 9 10 10 11 11 12 13 14 14 15 16 16 17 17 17 17 18 20 21 21 21 21 21 21 20 20 18 14 10
12 14 13 13 18 22 22 21 21 20 20 20 21 23 23 22 21 19 17 15 13 12 11 10 9 9 9 8 8 7 7 7 6 6 6 6 6 6 6 6 6 6 6 5 6 6 6 6 7 7 7 8 8 9 9 10 10 10 11 11 11 13 14 14 14 14 15 15 16 17 17 17 17 18 19 20 21 21 20 20 19 19 18 16 14
15 16 14 14 19 22 23 24 22 22 23 24 24 24 22 21 21 19 16 15 13 12 11 10 10 9 9 8 7 7 7 7 7 7 7 8 7 7 7 6 6 6 6 6 6 7 7 7 7 8 8 8 9 9 9 10 10 10 11 11 12 13 14 14 14 14 14 15 16 17 17 17 17 17 18 20 21 21 21 20 20 20 19 17 16
16 16 16 17 21 23 23 24 24 23 23 23 24 24 22 21 20 18 16 15 13 12 11 11 10 10 9 8 8 8 7 7 7 8 8 8 8 7 7 6 7 7 7 7 7 8 8 7 8 8 9 9 10 10 10 10 10 11 11 11 12 13 14 14 14 14 15 15 16 16 16 16 17 18 19 20 20 21 22 22 21 20 19 18 19
17 17 18 18 20 23 23 23 23 23 23 23 24 23 21 20 19 18 16 15 13 12 11 10 10 10 10 9 9 8 8 8 8 8 8 8 8 7 7 7 7 7 7 7 8 8 8 8 9 9 10 10 11 11 11 11 11 12 12 12 12 13 14 14 14 15 15 15 16 16 16 16 17 18 19 19 20 21 22 23 22 20 19 21 21
17 18 15 13 17 22 24 23 21 21 23 23 23 23 21 21 19 18 17 15 13 12 11 10 10 10 10 10 10 9 9 9 9 9 8 8 8 8 7 8 8 8 8 8 9 9 9 9 10 10 10 11 11 11 11 11 12 12 13 12 13 14 14 14 14 15 15 15 16 16 17 17 18 18 19 18 19 20 21 22 23 21 20 22 23
17 17 14 13 18 22 22 22 21 22 23 21 22 23 21 19 18 18 18 16 15 13 11 10 10 10 10 11 11 10 10 10 10 9 9 9 8 8 8 8 9 9 9 9 9 10 10 10 11 11 11 11 12 12 12 12 12 12 12 13 13 14 14 14 14 14 15 15 15 16 16 17 18 18 18 18 19 20 21 21 21 22 22 22 24
17 17 17 16 18 19 20 21 22 22 22 20 20 21 20 19 18 18 17 17 16 14 12 11 11 11 11 11 11 11 10 10 10 10 9 9 9 9 9 9 9 9 9 9 10 10 11 11 11 11 11 12 12 13 14 14 13 12 12 13 13 14 14 14 14 14 14 15 15 15 15 16 17 18 19 19 20 21 20 20 20 21 21 22 22
16 17 17 16 14 16 19 21 21 21 21 20 19 19 19 18 18 17 16 17 16 14 12 11 11 11 11 11 11 11 11 10 10 9 9 9 10 10 10 10 10 10 10 10 10 11 11 11 11 11 12 12 13 14 14 15 14 13 12 13 13 13 14 14 14 15 15 15 16 16 16 16 17 19 20 21 22 21 19 19 20 20 21 22 22
16 15 15 14 14 17 19 20 21 21 20 19 19 18 19 18 18 17 17 18 17 15 14 13 12 11 11 11 11 11 11 10 10 10 9 10 10 11 11 10 10 10 11 11 11 11 11 11 11 11 12 13 13 14 14 15 14 13 12 13 13 13 14 14 14 15 16 16 16 16 16 17 19 20 21 22 21 20 19 19 19 19 20 21 21
15 16 15 15 16 18 19 20 21 21 20 20 19 18 18 17 17 17 16 17 17 16 15 14 12 12 11 11 11 11 11 11 10 10 10 10 11 11 11 11 11 11 11 11 11 11 11 11 11 12 12 14 14 14 15 16 15 14 13 13 13 14 15 15 15 15 16 16 16 15 16 17 20 21 22 22 21 20 21 21 18 18 20 19 19
14 15 15 16 17 19 20 21 20 20 21 21 19 18 17 16 17 17 16 16 16 15 15 13 12 12 11 11 11 11 12 11 11 11 11 11 11 12 11 11 11 11 11 11 11 11 11 12 12 12 13 14 14 15 16 17 16 15 14 13 13 14 15 15 16 16 16 16 16 16 16 17 21 24 25 25 22 19 22 24 20 18 19 18 18
14 13 14 17 18 19 22 23 22 22 21 20 18 17 16 16 17 17 16 16 16 15 15 13 12 12 12 12 12 12 12 12 11 11 11 11 11 11 11 11 11 11 11 11 11 11 11 12 13 14 14 14 14 15 16 16 15 15 15 13 13 14 15 16 17 17 17 18 17 17 17 18 22 26 28 29 25 19 21 25 21 17 16 16 17
16 15 14 15 15 17 21 23 22 22 21 19 18 17 15 15 16 17 17 17 16 15 14 13 13 12 12 12 12 12 12 12 12 12 11 11 11 10 11 11 11 11 11 11 11 11 11 12 13 15 15 15 14 15 16 15 14 14 15 14 13 14 14 15 17 17 18 19 19 19 19 20 23 26 29 32 31 24 20 23 22 17 13 13 15
16 16 14 12 13 15 18 21 21 22 20 19 18 17 16 16 16 17 17 17 16 15 14 14 13 13 13 12 12 12 12 12 12 11 11 11 10 10 11 11 11 11 11 11 11 11 11 11 12 14 16 16 14 14 14 14 14 14 15 14 13 13 14 15 16 17 18 20 21 21 21 21 23 26 29 33 34 29 22 20 21 18 13 13 15
18 17 15 14 16 18 20 21 20 20 20 19 18 17 17 17 17 18 18 17 17 16 15 14 13 13 13 12 12 12 12 12 11 11 11 10 10 10 10 10 10 11 11 11 12 11 11 11 11 13 15 17 16 13 12 13 12 13 15 15 13 13 14 15 16 17 18 20 22 22 21 22 24 25 29 33 33 30 25 22 20 17 15 15 15
18 18 17 18 19 19 21 21 19 19 20 19 18 18 18 18 18 18 18 17 16 16 15 14 13 13 12 12 12 12 12 12 11 11 11 10 10 10 10 10 10 10 11 11 11 11 11 10 11 11 13 16 18 14 12 12 11 11 13 14 13 12 13 15 16 17 18 20 23 24 22 23 24 24 29 33 31 28 25 22 20 17 16 16 14
18 18 18 19 21 20 20 20 19 19 19 19 18 18 19 19 18 18 17 17 16 16 15 15 14 13 12 12 12 12 12 12 11 11 11 11 11 10 10 10 10 10 11 11 11 11 11 11 11 12 12 15 19 15 12 12 12 11 12 13 12 12 13 14 15 16 16 18 22 23 22 22 23 24 29 31 29 25 22 21 20 19 18 17 15
17 18 19 21 24 24 23 21 20 19 18 18 18 18 18 19 18 17 17 16 16 16 15 14 13 13 13 13 12 13 13 12 12 12 11 11 11 11 11 11 11 11 11 11 11 11 12 11 12 13 13 16 21 19 14 11 12 12 13 12 11 12 14 14 15 16 16 16 20 22 22 21 22 25 29 30 27 23 21 21 21 20 19 18 17
20 21 21 24 26 25 24 22 21 19 18 18 18 18 18 18 17 16 16 16 16 16 15 14 13 14 13 13 13 13 13 13 12 12 11 11 11 11 11 10 10 11 10 11 12 12 12 12 12 13 13 16 22 24 18 14 13 13 13 13 12 13 14 14 15 16 16 16 19 23 23 21 22 27 30 30 28 24 21 22 22 20 20 19 19
23 25 25 25 25 25 24 22 20 19 18 18 19 19 18 17 16 16 16 16 16 16 15 14 14 14 14 14 13 14 13 13 13 12 12 12 11 11 11 10 9 10 10 11 12 13 13 13 13 13 14 15 21 26 22 17 15 15 14 14 13 13 14 14 14 15 15 15 18 22 24 24 25 29 32 32 31 27 23 23 24 22 21 21 22
26 28 28 27 26 25 23 21 20 19 19 18 19 19 18 16 16 16 16 16 16 16 15 15 15 15 14 14 13 13 13 13 13 12 12 12 11 10 10 9 9 10 10 11 11 11 12 13 14 15 15 14 18 24 25 21 18 16 17 15 13 13 14 14 14 14 14 15 16 18 22 26 26 27 30 31 31 29 25 23 24 23 22 23 23
27 29 29 28 27 25 22 21 20 19 19 19 18 18 17 16 15 16 17 16 16 16 16 16 16 16 15 14 13 14 14 13 13 13 12 11 10 10 9 9 9 10 10 10 10 10 11 11 13 15 16 16 15 19 24 25 22 19 17 15 13 13 14 14 13 14 14 14 15 15 19 24 25 24 26 27 28 28 26 24 23 25 26 25 21
27 28 28 28 26 24 22 21 20 19 19 19 18 18 18 16 16 17 17 17 17 17 18 17 17 16 16 15 14 14 14 13 13 12 11 10 10 10 10 10 10 10 10 10 10 10 10 10 11 12 14 17 17 17 20 23 23 21 18 16 15 14 15 13 13 14 14 14 15 15 18 23 24 23 24 26 27 25 23 23 23 25 28 27 22
28 27 27 27 26 24 22 21 20 20 19 19 19 19 19 18 18 18 18 18 18 18 18 18 17 17 17 16 15 14 13 12 12 11 11 10 10 10 11 11 11 10 10 10 9 9 9 10 10 10 11 13 16 18 18 20 21 21 19 18 16 15 15 14 12 13 14 14 15 15 18 22 24 22 22 27 29 25 21 23 24 23 25 26 24
28 27 27 26 25 24 22 21 21 20 19 19 20 20 19 19 19 19 19 19 18 18 18 17 17 17 17 16 15 14 12 11 11 11 11 11 11 11 11 10 10 10 10 9 9 9 9 10 10 11 10 9 10 13 16 17 18 19 19 17 16 15 15 13 12 13 13 14 15 15 18 22 24 22 20 24 29 28 23 23 23 23 23 24 23
28 28 28 27 25 24 23 22 21 19 19 19 20 20 20 20 20 19 19 18 18 17 18 18 18 17 16 15 15 13 12 11 11 11 11 11 10 10 9 9 9 9 9 8 8 8 9 10 10 10 11 10 9 9 12 14 14 14 16 17 15 15 14 12 11 11 12 13 16 17 20 22 23 22 19 19 25 29 28 25 24 24 24 25 24
29 29 27 26 25 25 23 22 21 20 19 19 19 21 22 21 19 19 19 19 19 18 19 18 18 17 16 15 14 13 12 11 11 10 11 10 10 10 9 9 8 8 8 8 8 9 9 9 10 10 10 11 11 10 11 13 12 10 13 16 14 13 14 12 9 10 11 14 17 18 19 20 21 21 20 19 20 25 27 27 26 26 26 26 26
28 28 27 26 25 25 23 23 21 20 19 19 20 21 22 20 19 19 19 19 19 19 19 18 17 16 15 15 14 13 12 11 10 10 10 9 9 9 9 9 9 9 8 8 8 8 9 9 10 10 10 10 11 12 11 13 13 10 11 14 13 13 14 13 10 11 13 14 16 17 17 17 19 20 20 19 20 22 24 25 25 26 26 27 26
27 27 27 26 25 24 24 24 22 20 20 20 20 21 21 20 20 19 19 19 20 19 19 18 17 16 15 14 14 13 12 11 11 10 10 9 9 9 9 9 8 8 8 9 9 9 9 9 8 9 9 10 11 13 13 14 15 14 13 13 12 12 13 13 11 12 14 13 13 15 15 16 18 19 18 19 20 20 22 23 24 24 25 26 26
27 28 27 25 24 24 24 23 22 20 20 21 20 20 21 20 20 20 20 19 19 19 18 18 17 15 15 14 13 12 11 11 11 12 12 11 10 10 11 12 12 11 9 9 10 10 10 9 8 8 8 9 10 12 13 13 14 15 15 14 13 13 13 12 12 14 15 13 12 13 15 15 17 18 18 19 20 20 21 22 23 23 23 24 24
27 26 25 24 24 25 24 23 22 21 21 21 21 21 21 20 20 20 20 19 19 18 18 17 16 15 15 14 12 11 11 11 12 14 15 15 14 13 14 14 14 13 11 10 11 11 11 10 9 9 9 8 9 9 10 11 11 12 13 13 12 12 12 11 12 13 13 12 12 13 15 15 16 18 18 19 19 20 20 21 22 22 23 24 23
27 25 25 25 25 25 25 24 22 22 21 21 21 21 21 20 20 20 20 19 19 18 17 16 15 15 14 13 13 13 13 13 14 15 16 17 17 16 16 16 15 14 12 11 12 11 10 10 11 10 10 9 8 6 6 7 8 8 10 11 11 11 11 12 13 13 12 11 12 13 14 15 15 17 18 18 19 19 20 20 21 21 22 23 24
27 25 25 26 25 25 25 24 23 22 22 21 21 21 20 20 20 19 19 19 18 17 16 15 15 14 13 13 14 14 14 15 15 16 16 16 17 17 17 17 16 15 14 12 11 10 9 9 10 9 8 8 6 5 5 6 6 6 8 10 11 12 12 12 13 14 12 11 12 12 13 14 14 15 16 17 17 18 19 19 20 20 21 22 23
Wind_Direction
126 128 136 138 144 147 149 152 147 146 150 155 161 168 171 170 173 176 176 177 175 175 178 182 185 184 180 179 179 176 169 168 172 173 168 164 165 171 171 170 173 178 189 198 211 234 267 286 283 290 292 288 291 294 294 293 291 291 291 288 286 289 289 282 277 279 282 285 283 276 269 263 256 254 258 260 262 263 262 261 260 259 257 257 256
129 136 145 141 147 150 150 153 150 150 155 160 164 169 172 172 175 179 178 179 179 176 176 181 190 182 176 191 188 174 168 165 166 169 165 159 161 167 166 166 170 171 183 192 210 241 264 279 283 291 292 289 291 291 291 290 289 290 290 287 285 286 287 286 282 280 284 294 298 292 283 275 260 248 251 258 260 260 258 257 257 258 255 255 256
145 157 159 146 148 154 154 156 155 156 159 163 168 168 171 174 176 181 180 180 180 172 164 173 206 187 169 201 196 175 177 166 159 163 164 161 162 165 164 163 165 165 177 189 206 242 263 280 289 292 293 293 295 295 293 292 290 290 288 286 290 290 284 282 281 278 287 299 300 294 296 300 282 244 242 255 258 258 256 250 249 253 254 252 252
153 161 168 154 152 159 161 158 157 160 162 166 169 167 171 175 176 179 177 174 167 165 169 167 180 183 174 178 170 181 192 160 149 157 160 163 164 163 162 161 161 163 175 189 206 237 265 287 294 295 296 296 298 297 295 294 291 289 285 284 289 292 291 291 285 277 282 292 299 302 303 300 296 281 266 264 257 251 250 248 246 247 250 249 248
156 158 173 165 160 164 163 160 160 162 166 169 169 168 169 170 174 173 167 168 154 161 177 174 168 170 171 170 152 154 201 164 150 171 176 169 161 156 152 151 151 153 166 189 208 235 267 291 296 298 300 300 300 296 295 296 292 288 288 287 286 289 295 298 294 286 278 277 285 298 301 295 303 324 315 290 271 252 243 246 247 242 243 246 247
157 164 173 175 167 164 165 164 162 162 167 171 169 166 164 164 165 155 153 173 169 168 180 176 166 156 160 164 141 144 200 196 168 183 182 163 145 139 136 135 139 142 150 173 196 250 286 298 304 304 305 307 306 302 300 298 294 294 293 291 292 293 294 295 295 295 286 274 270 274 278 282 296 311 313 304 297 279 254 248 248 244 241 243 248
161 176 173 176 171 164 169 169 164 163 166 169 166 160 155 150 150 149 156 166 165 168 174 161 160 161 167 168 151 164 197 188 166 168 158 140 130 128 126 122 117 116 118 125 83 332 324 319 317 315 311 311 313 309 305 302 301 302 300 298 299 300 295 292 295 300 297 285 275 271 271 275 282 289 291 297 302 293 279 270 262 256 250 246 249
167 185 174 176 175 167 170 172 168 164 161 161 155 149 143 143 157 161 154 148 151 160 166 163 174 191 194 187 180 188 185 168 163 147 125 125 125 118 115 111 96 72 55 29 354 346 339 327 322 321 312 309 312 308 304 305 306 306 305 303 301 300 297 295 297 300 300 297 293 288 282 281 280 275 274 281 289 293 289 283 272 264 255 248 250
166 178 172 174 176 169 169 171 167 159 156 152 145 143 141 149 162 159 142 140 150 152 155 183 198 195 189 187 196 193 174 163 157 132 118 118 111 98 87 81 63 36 18 2 346 340 335 324 318 319 312 308 307 305 306 307 307 307 305 304 303 301 299 297 297 297 297 297 299 296 292 289 286 277 273 272 269 275 285 288 283 275 260 248 250
170 175 171 172 172 167 166 163 158 152 150 149 146 147 146 146 149 146 143 150 151 145 151 180 192 173 157 177 190 178 156 145 134 121 116 109 103 94 68 26 17 17 5 357 348 337 331 326 320 317 313 311 309 307 309 308 306 305 303 302 302 300 297 295 296 296 295 294 294 294 292 291 290 287 283 278 271 268 275 285 288 287 277 264 260
179 178 171 168 167 163 161 157 155 152 150 150 148 146 144 142 141 142 144 142 138 138 142 155 153 130 147 177 173 154 138 133 128 124 121 115 116 102 49 14 8 4 354 354 352 342 335 331 327 324 317 313 312 312 312 309 306 306 303 300 298 296 293 292 293 292 291 291 290 289 288 287 289 288 288 290 287 280 281 286 286 289 292 287 280
182 179 167 160 160 159 159 158 157 155 152 150 146 142 141 142 142 143 142 136 131 124 121 122 126 134 149 149 135 125 119 125 127 126 123 105 89 70 20 21 60 10 351 348 347 345 341 337 334 332 329 323 321 320 317 314 311 308 304 299 296 295 293 292 291 291 291 291 290 289 288 287 285 284 287 289 288 287 288 289 288 290 293 291 290
179 172 160 154 155 158 160 159 155 153 151 148 143 140 140 141 140 138 133 127 121 117 122 131 135 138 129 114 114 107 98 107 112 112 118 88 70 81 30 28 93 22 353 344 343 346 343 340 340 337 335 331 327 325 321 316 312 309 304 300 299 298 296 295 293 293 294 291 291 291 289 288 286 285 287 287 286 287 286 284 288 291 292 291 292
173 165 157 153 154 157 158 152 148 150 149 144 142 141 139 136 133 127 120 116 118 124 130 123 111 106 96 91 99 97 90 91 84 85 103 98 91 97 65 41 40 17 356 346 345 346 345 342 342 340 338 335 330 326 322 316 314 310 304 304 304 302 301 299 297 296 294 291 291 291 289 289 289 287 287 285 283 284 284 286 291 292 291 290 290
167 161 155 151 149 150 149 144 147 152 145 137 140 139 133 129 127 122 118 120 122 120 115 105 94 88 84 85 96 101 99 93 81 81 91 87 87 95 77 52 31 20 9 359 352 349 348 347 347 346 345 343 339 333 327 323 323 318 310 309 308 306 306 304 302 301 299 298 297 293 290 289 287 286 286 283 282 283 284 286 288 291 291 288 288
161 155 152 148 145 144 144 145 150 150 139 136 140 136 130 128 124 122 121 121 121 116 111 106 102 102 101 99 103 105 104 103 96 95 95 84 78 79 70 56 40 32 21 10 5 0 357 355 354 353 351 349 345 341 336 331 329 323 317 316 315 313 312 311 307 304 303 302 301 297 293 290 287 286 286 284 284 283 283 284 283 282 285 289 291
159 154 147 144 145 148 152 154 153 146 137 138 141 138 135 130 123 121 121 120 118 115 113 109 106 103 101 100 101 102 103 102 99 98 96 88 80 71 67 60 48 43 35 22 18 13 9 6 2 358 356 354 350 348 345 340 337 332 327 325 323 322 320 316 312 308 305 302 300 298 296 292 290 290 290 289 287 284 283 284 282 281 282 286 289
146 141 131 137 151 158 159 156 149 142 136 133 132 130 128 125 123 123 123 121 117 112 109 107 103 97 95 97 97 96 96 96 96 96 93 91 85 77 73 65 53 48 41 32 28 23 17 14 11 8 2 358 355 353 351 348 346 343 337 333 331 331 327 321 317 313 310 308 305 302 300 295 292 294 296 298 296 291 288 286 284 284 283 280 281
134 136 133 142 153 156 153 146 142 142 138 128 123 122 120 121 124 123 120 118 114 111 108 105 102 100 99 98 95 92 91 92 94 94 94 93 87 82 78 69 60 52 43 38 34 28 26 21 17 15 9 5 3 359 355 353 350 347 343 338 336 336 332 327 326 321 316 314 310 307 304 300 298 298 298 299 299 297 295 292 289 286 282 280 283
144 148 147 144 145 147 144 140 141 142 137 129 126 124 121 119 119 119 118 117 113 109 107 104 103 104 100 94 91 88 87 89 92 95 95 90 86 84 80 72 65 55 47 44 38 33 31 25 22 20 13 10 8 3 359 357 355 351 346 341 338 338 337 335 333 330 326 322 317 314 309 305 305 303 301 301 301 300 300 296 293 290 285 281 282
150 153 150 145 146 145 138 135 137 137 134 130 129 128 123 118 120 122 120 116 112 108 106 106 106 105 101 95 90 88 88 89 90 91 89 85 81 80 78 75 68 59 52 48 42 38 33 27 25 21 16 13 9 6 3 358 356 352 347 343 341 341 340 338 336 334 332 330 325 323 319 314 313 312 312 314 312 311 308 302 299 298 295 292 284
151 152 150 150 151 144 136 137 140 139 135 130 130 133 130 127 127 125 120 116 112 109 106 107 107 106 103 98 93 92 92 91 89 87 85 82 77 74 75 76 69 60 56 51 46 40 34 30 27 21 19 16 12 10 6 1 357 353 349 347 343 342 340 338 337 335 334 333 330 327 327 326 325 323 322 322 319 318 316 310 309 307 304 303 291
151 150 144 139 141 142 141 142 141 139 135 130 132 135 133 133 131 126 122 119 115 111 108 108 108 107 107 103 100 99 96 92 89 85 84 81 77 73 71 71 69 62 56 53 48 42 36 33 30 26 23 20 17 15 9 4 1 356 353 351 348 346 344 339 337 336 335 335 332 331 331 331 332 329 326 324 321 321 320 317 316 315 311 310 305
144 140 134 131 139 146 147 140 137 137 134 130 133 134 132 133 130 126 125 123 118 114 112 112 111 110 111 108 105 102 96 91 87 84 84 84 80 77 71 69 69 63 58 55 49 45 41 37 35 32 27 23 19 13 8 5 2 358 355 354 351 350 348 345 342 340 339 339 337 337 337 338 339 336 334 332 328 326 324 321 319 319 317 315 316
136 135 138 144 148 150 146 139 137 136 132 130 131 130 130 131 128 125 123 119 117 117 116 118 118 115 113 109 105 101 94 89 87 84 84 83 81 79 74 70 69 65 61 57 52 49 46 42 40 35 28 23 16 10 7 3 360 357 356 356 354 353 352 351 349 347 346 346 345 344 344 347 348 346 342 337 332 329 326 324 322 321 320 319 318
141 144 147 149 148 143 140 137 138 136 133 134 133 129 130 130 128 126 118 113 115 119 122 123 122 118 113 107 103 98 93 89 88 86 83 82 81 80 76 71 68 67 63 60 58 55 51 47 42 35 28 21 14 10 7 3 360 357 356 356 357 356 356 354 353 352 351 350 349 348 349 352 354 350 343 337 333 332 330 328 327 325 325 323 320
145 148 146 142 138 136 135 134 136 135 134 133 133 134 135 132 130 126 117 112 114 118 121 122 123 120 113 108 102 98 95 92 89 87 84 82 81 79 77 74 71 70 67 64 62 58 53 49 42 35 28 21 16 12 8 6 3 358 355 357 359 359 359 358 355 353 353 352 352 352 352 355 355 351 345 339 335 333 333 332 330 329 329 328 325
148 147 142 136 133 133 133 134 136 135 133 134 135 138 138 133 129 124 117 116 119 122 123 123 124 119 113 109 105 100 99 95 92 90 86 83 82 78 77 77 74 72 69 66 63 59 56 50 41 34 27 22 17 12 10 10 8 4 0 0 3 3 1 0 359 357 356 356 354 354 355 357 355 352 348 345 342 340 339 334 331 334 336 334 333
146 143 139 136 134 134 135 135 134 131 131 133 136 139 138 131 126 122 120 122 126 128 129 127 124 120 117 113 107 103 101 98 95 92 88 85 82 79 79 78 75 73 69 67 65 61 57 51 42 36 29 23 18 16 20 22 19 18 15 9 6 8 7 6 5 4 4 3 1 360 1 359 356 354 353 353 353 353 347 338 328 330 338 339 338
142 137 136 136 136 135 134 135 134 132 133 135 138 140 138 131 124 122 123 126 129 134 135 130 125 123 120 113 107 103 101 98 96 94 91 88 84 81 80 78 76 73 70 68 66 62 59 52 44 38 31 26 24 27 34 37 34 31 27 19 13 14 15 13 12 10 9 8 5 3 2 359 356 355 355 356 359 2 357 349 336 326 333 344 346
138 131 128 131 133 130 131 135 137 137 138 139 141 141 137 129 123 122 126 129 133 140 139 131 127 125 120 112 108 105 101 99 99 96 93 90 86 83 82 78 76 73 70 68 66 63 59 53 46 40 33 28 29 36 42 44 45 42 35 28 22 21 20 18 16 15 11 8 4 0 359 356 355 355 353 354 357 360 0 355 348 336 333 347 358
129 122 119 121 125 126 132 138 139 138 139 139 139 138 133 129 125 126 130 132 134 136 135 131 130 126 119 113 110 107 104 102 100 97 94 91 88 86 83 80 77 74 72 68 66 64 60 55 49 42 36 30 31 40 44 44 47 47 42 36 29 26 24 20 18 16 13 10 5 360 357 354 354 354 351 349 351 354 356 353 349 346 342 348 2
128 128 130 131 130 131 136 140 139 139 140 138 137 134 131 130 129 130 134 135 134 133 131 130 128 123 117 113 112 109 106 105 102 99 97 94 92 90 86 83 81 77 74 69 67 65 62 57 51 46 39 32 31 37 39 39 43 46 46 43 34 29 27 23 19 16 13 10 5 359 356 354 353 353 351 348 347 350 354 352 348 349 348 346 354
135 140 142 137 133 132 136 140 142 142 138 135 133 131 130 131 132 134 136 135 133 130 127 125 124 122 118 114 113 110 107 107 104 101 99 96 95 93 89 87 85 80 76 72 69 66 64 59 53 48 41 31 28 29 30 31 36 42 49 47 38 30 27 22 18 15 12 11 7 3 359 357 355 354 354 352 350 349 351 349 346 348 350 346 350
142 147 144 138 134 133 138 142 140 136 133 132 131 130 131 133 134 136 136 134 131 126 121 121 122 122 119 116 114 112 109 109 106 103 101 98 96 95 91 89 86 81 78 75 72 69 68 65 57 50 43 32 26 26 27 28 31 40 48 46 37 30 26 20 17 15 14 13 10 6 2 1 359 358 359 360 357 354 352 348 346 347 346 344 349
145 146 144 142 141 139 142 142 138 133 133 133 133 132 133 134 135 137 133 130 128 121 117 119 121 121 120 118 117 115 112 111 108 106 103 100 99 97 93 91 87 83 80 78 75 73 71 68 61 54 50 37 30 29 32 32 34 38 41 40 37 31 26 23 20 18 18 18 17 13 9 6 4 4 8 9 7 4 359 354 350 349 347 344 346
147 147 145 145 143 141 141 141 139 137 136 137 137 136 135 135 135 134 130 126 122 118 117 120 118 117 118 119 119 117 114 113 110 108 106 104 104 100 95 94 91 89 87 83 79 76 71 67 61 56 53 42 33 34 39 44 43 40 35 35 39 36 29 28 27 23 21 22 21 20 18 16 11 12 15 16 15 13 7 0 358 355 352 350 347
149 147 143 142 141 141 142 141 138 137 138 140 140 139 137 137 135 132 128 124 120 117 118 119 116 115 117 118 118 117 115 113 111 110 110 107 105 101 98 97 96 95 95 91 85 81 74 68 62 57 55 48 39 37 43 48 47 44 40 38 41 42 34 31 30 26 24 22 19 20 25 27 22 19 21 22 21 18 12 7 5 2 360 359 353
151 147 144 143 142 143 143 140 137 139 141 143 144 143 139 135 130 126 121 117 115 115 116 116 115 115 116 116 115 114 114 115 113 112 111 109 108 107 106 106 103 98 96 94 91 87 81 74 66 59 55 51 43 38 41 47 48 47 46 42 41 42 37 33 29 25 25 24 19 20 26 27 23 20 22 24 25 24 19 12 10 8 4 360 357
144 144 143 143 144 144 142 140 140 142 141 143 143 138 131 126 119 114 110 109 110 111 111 112 113 113 113 112 112 114 115 115 113 111 110 110 109 109 108 105 102 99 95 94 92 90 87 79 71 63 57 53 47 39 38 42 46 48 48 45 39 31 26 27 28 24 23 23 22 20 19 19 17 16 17 20 23 27 25 17 13 11 4 356 355
137 142 146 146 144 142 141 142 143 143 143 144 140 131 126 124 118 112 111 112 111 111 112 114 116 117 115 113 112 114 114 114 113 113 112 112 110 108 106 101 99 98 96 96 94 90 87 82 75 71 63 56 50 43 37 37 40 44 47 47 39 24 17 20 25 25 22 20 20 17 13 12 12 11 13 15 15 20 25 22 20 19 13 8 8
138 143 149 149 144 141 142 144 145 145 145 144 139 132 128 126 121 118 120 121 120 120 121 123 122 120 117 116 114 114 114 114 116 116 113 110 107 106 104 102 101 101 98 96 93 88 85 81 75 72 70 60 49 42 38 36 36 39 44 48 45 32 24 23 25 26 24 20 17 13 5 5 6 7 11 15 14 13 17 22 25 27 24 21 21
140 144 148 150 146 143 143 145 146 146 145 141 136 131 128 127 125 125 128 128 128 129 128 126 124 119 117 117 117 117 117 117 118 117 114 112 110 108 106 106 107 106 102 97 93 88 83 79 72 64 62 61 50 36 30 30 32 35 38 42 44 39 32 29 26 26 24 19 12 4 358 0 2 4 10 15 15 13 11 16 24 30 29 27 24
148 148 147 146 146 145 145 146 146 144 142 139 135 131 128 128 128 130 133 132 131 131 127 124 121 120 120 121 121 121 119 116 115 114 111 109 108 107 107 107 107 105 102 96 91 86 80 74 71 63 53 49 48 35 22 18 19 26 29 28 30 30 29 28 27 24 20 12 5 359 358 1 2 4 9 12 14 14 13 14 20 26 29 29 25
149 148 144 143 145 146 145 144 143 141 138 136 134 131 129 129 131 134 135 132 130 129 126 124 123 124 125 125 123 120 117 115 114 111 108 108 108 106 103 100 97 93 92 90 85 81 76 70 66 63 55 45 40 35 26 14 6 8 17 17 15 16 15 12 12 9 2 1 0 358 359 1 2 5 10 11 12 15 16 17 20 23 28 29 27
146 145 143 144 145 144 141 139 137 136 135 134 134 133 131 131 134 136 135 133 131 128 126 126 127 128 128 126 122 118 115 112 109 106 104 103 102 102 101 99 96 91 85 82 78 75 74 71 66 62 58 50 40 35 31 22 12 6 10 11 10 9 7 4 2 358 353 355 359 358 358 2 3 6 11 13 12 15 17 18 20 22 25 28 28
142 141 142 143 144 140 137 136 134 134 134 135 135 134 133 133 135 136 135 134 131 128 128 129 129 128 126 123 120 118 116 112 107 103 101 97 93 90 84 76 72 76 80 79 74 67 64 65 66 64 61 55 46 38 32 26 21 16 13 12 12 9 7 9 10 0 351 352 358 360 2 8 9 8 12 15 15 16 18 19 21 22 23 25 27
139 140 142 143 142 140 137 135 134 135 137 137 137 136 135 135 136 136 135 133 131 130 131 130 128 127 124 122 122 122 118 109 98 86 79 77 80 81 73 60 51 50 56 65 70 65 57 53 55 57 57 57 52 43 34 27 24 21 18 15 13 9 7 9 9 0 351 351 0 5 8 12 13 12 14 16 17 17 19 20 21 22 22 22 23
139 141 143 143 141 139 137 135 135 137 139 138 138 138 137 137 138 138 136 135 134 134 133 130 128 127 125 125 125 121 115 110 99 86 75 71 76 84 82 73 66 61 57 62 70 65 54 50 52 49 50 56 55 43 32 27 26 23 20 17 17 16 11 3 359 357 354 357 6 11 12 13 15 15 14 15 16 17 18 20 21 21 21 22 22
142 143 143 141 140 138 136 135 136 139 140 139 138 139 139 139 139 140 139 138 136 134 133 132 131 131 131 130 126 120 116 115 111 103 93 83 83 87 87 82 78 75 74 81 87 79 67 68 70 61 56 62 60 44 27 23 20 18 20 26 30 28 21 13 8 4 1 5 12 14 14 15 16 17 15 14 16 16 17 18 20 20 21 22 22
144 144 142 140 139 137 136 137 138 140 140 139 138 139 139 139 140 141 141 140 138 135 135 136 135 134 134 132 128 124 122 119 116 114 110 101 92 86 85 83 82 81 82 87 93 95 93 94 91 77 62 55 49 36 20 12 9 13 27 36 36 28 20 18 14 7 4 11 16 15 15 17 17 18 16 14 15 17 17 18 18 19 20 21 21